Location: Petržalka
(48.1109°N, 17.1116°E)
Time: 20:19:24
(UTC+01:00)

N. Korean satellite - Visible Passes

Search period start: 18 March 2019 00:00
Search period end: 28 March 2019 00:00
Orbit: 455 x 511 km, 97.2° (Epoch: 18 March)

Date Brightness Start Highest point End Pass type
(mag) Time Alt. Az. Time Alt. Az. Time Alt. Az.
19 Mar 9.6 05:21:00 10° NE 05:23:46 21° E 05:26:33 10° SE visible
20 Mar 10.2 04:57:27 10° ENE 04:58:45 12° E 05:00:04 10° ESE visible
23 Mar 9.8 05:15:18 10° NE 05:17:54 19° E 05:20:31 10° SE visible
24 Mar 10.6 04:52:22 10° E 04:52:51 10° E 04:53:20 10° E visible
